Time,TemperatureF,DewpointF,PressureIn,WindDirection,WindDirectionDegrees,WindSpeedMPH,WindSpeedGustMPH,Humidity,HourlyPrecipIn,Conditions,Clouds,dailyrainin,SolarRadiationWatts/m^2,SoftwareType,DateUTC
2013-02-15 00:01:00,29.0,14.0,-100.00,NE,45,4.0,13.0,53,0.00,,,0.00,0.000000,,2013-02-15 07:01:00,
2013-02-15 00:21:00,20.0,14.0,-100.00,SSE,151,0.0,10.0,77,0.00,,,0.00,0.000000,,2013-02-15 07:21:00,
2013-02-15 00:32:00,20.0,14.0,-100.00,SSE,151,0.0,10.0,77,0.00,,,0.00,0.000000,,2013-02-15 07:32:00,
2013-02-15 00:42:00,20.0,14.0,-100.00,SSE,151,0.0,10.0,77,0.00,,,0.00,0.000000,,2013-02-15 07:42:00,
2013-02-15 00:52:00,20.0,14.0,-100.00,SSE,151,0.0,10.0,77,0.00,,,0.00,0.000000,,2013-02-15 07:52:00,
2013-02-15 01:01:00,20.0,14.0,-100.00,SSE,151,0.0,10.0,77,0.00,,,0.00,0.000000,,2013-02-15 08:01:00,
2013-02-15 01:21:00,18.0,13.0,-100.00,SSE,164,3.0,5.0,80,-99.99,,,0.00,0.000000,,2013-02-15 08:21:00,
2013-02-15 01:32:00,18.0,13.0,-100.00,SSE,164,3.0,5.0,80,-99.99,,,0.00,0.000000,,2013-02-15 08:32:00,
2013-02-15 01:42:00,18.0,13.0,-100.00,SSE,164,3.0,5.0,80,-99.99,,,0.00,0.000000,,2013-02-15 08:42:00,
2013-02-15 01:53:00,18.0,13.0,-100.00,SSE,164,3.0,5.0,80,-99.99,,,0.00,0.000000,,2013-02-15 08:53:00,
2013-02-15 02:01:00,18.0,13.0,-100.00,SSE,164,3.0,5.0,80,-99.99,,,0.00,0.000000,,2013-02-15 09:01:00,
2013-02-15 02:22:00,17.0,12.0,-100.00,SW,222,0.0,5.0,80,-99.99,,,0.00,0.000000,,2013-02-15 09:22:00,
2013-02-15 02:32:00,17.0,12.0,-100.00,SW,222,0.0,5.0,80,-99.99,,,0.00,0.000000,,2013-02-15 09:32:00,
2013-02-15 02:42:00,17.0,12.0,-100.00,SW,222,0.0,5.0,80,-99.99,,,0.00,0.000000,,2013-02-15 09:42:00,
2013-02-15 02:52:00,17.0,12.0,-100.00,SW,222,0.0,5.0,80,-99.99,,,0.00,0.000000,,2013-02-15 09:52:00,
2013-02-15 03:01:00,17.0,12.0,-100.00,SW,222,0.0,5.0,80,-99.99,,,0.00,0.000000,,2013-02-15 10:01:00,
2013-02-15 03:32:00,12.0,9.0,-100.00,SW,228,0.0,5.0,89,-99.99,,,0.00,0.000000,,2013-02-15 10:32:00,
2013-02-15 03:42:00,12.0,9.0,-100.00,SW,228,0.0,5.0,89,-99.99,,,0.00,0.000000,,2013-02-15 10:42:00,
2013-02-15 03:52:00,12.0,9.0,-100.00,SW,228,0.0,5.0,89,-99.99,,,0.00,0.000000,,2013-02-15 10:52:00,
2013-02-15 04:01:00,12.0,9.0,-100.00,SW,228,0.0,5.0,89,-99.99,,,0.00,0.000000,,2013-02-15 11:01:00,
2013-02-15 04:32:00,14.0,11.0,-100.00,South,190,0.0,4.0,87,-99.99,,,0.00,0.000000,,2013-02-15 11:32:00,
2013-02-15 04:42:00,14.0,11.0,-100.00,South,190,0.0,4.0,87,-99.99,,,0.00,0.000000,,2013-02-15 11:42:00,
2013-02-15 04:52:00,14.0,11.0,-100.00,South,190,0.0,4.0,87,-99.99,,,0.00,0.000000,,2013-02-15 11:52:00,
2013-02-15 05:01:00,14.0,11.0,-100.00,South,190,0.0,4.0,87,-99.99,,,0.00,0.000000,,2013-02-15 12:01:00,
2013-02-15 05:22:00,9.0,6.0,-100.00,South,188,0.0,7.0,88,-99.99,,,0.00,0.000000,,2013-02-15 12:22:00,
2013-02-15 05:32:00,9.0,6.0,-100.00,South,188,0.0,7.0,88,-99.99,,,0.00,0.000000,,2013-02-15 12:32:00,
2013-02-15 05:42:00,9.0,6.0,-100.00,South,188,0.0,7.0,88,-99.99,,,0.00,0.000000,,2013-02-15 12:42:00,
2013-02-15 05:52:00,9.0,6.0,-100.00,South,188,0.0,7.0,88,-99.99,,,0.00,0.000000,,2013-02-15 12:52:00,
2013-02-15 06:02:00,9.0,6.0,-100.00,South,188,0.0,7.0,88,-99.99,,,0.00,0.000000,,2013-02-15 13:02:00,
2013-02-15 06:22:00,7.0,4.0,-100.00,NNE,25,0.0,4.0,86,-99.99,,,0.00,0.000000,,2013-02-15 13:22:00,
2013-02-15 06:32:00,7.0,4.0,-100.00,NNE,25,0.0,4.0,86,-99.99,,,0.00,0.000000,,2013-02-15 13:32:00,
2013-02-15 06:42:00,7.0,4.0,-100.00,NNE,25,0.0,4.0,86,-99.99,,,0.00,0.000000,,2013-02-15 13:42:00,
2013-02-15 06:52:00,7.0,4.0,-100.00,NNE,25,0.0,4.0,86,-99.99,,,0.00,0.000000,,2013-02-15 13:52:00,
2013-02-15 07:01:00,7.0,4.0,-100.00,NNE,25,0.0,4.0,86,-99.99,,,0.00,0.000000,,2013-02-15 14:01:00,
2013-02-15 07:32:00,9.0,6.0,-100.00,SW,236,0.0,7.0,86,-99.99,,,0.00,0.000000,,2013-02-15 14:32:00,
2013-02-15 07:42:00,9.0,6.0,-100.00,SW,236,0.0,7.0,86,-99.99,,,0.00,0.000000,,2013-02-15 14:42:00,
2013-02-15 07:52:00,9.0,6.0,-100.00,SW,236,0.0,7.0,86,-99.99,,,0.00,0.000000,,2013-02-15 14:52:00,
2013-02-15 08:01:00,9.0,6.0,-100.00,SW,236,0.0,7.0,86,-99.99,,,0.00,0.000000,,2013-02-15 15:01:00,
2013-02-15 08:32:00,21.0,18.0,-100.00,NNE,30,3.0,4.0,87,-99.99,,,0.00,30.000000,,2013-02-15 15:32:00,
2013-02-15 08:42:00,21.0,18.0,-100.00,NNE,30,3.0,4.0,87,-99.99,,,0.00,30.000000,,2013-02-15 15:42:00,
2013-02-15 08:52:00,21.0,18.0,-100.00,NNE,30,3.0,4.0,87,-99.99,,,0.00,30.000000,,2013-02-15 15:52:00,
2013-02-15 09:01:00,21.0,18.0,-100.00,NNE,30,3.0,4.0,87,-99.99,,,0.00,30.000000,,2013-02-15 16:01:00,
2013-02-15 09:32:00,32.0,16.0,-100.00,NE,41,6.0,8.0,52,-99.99,,,0.00,271.000000,,2013-02-15 16:32:00,
2013-02-15 09:43:00,32.0,16.0,-100.00,NE,41,6.0,8.0,52,-99.99,,,0.00,271.000000,,2013-02-15 16:43:00,
2013-02-15 09:52:00,32.0,16.0,-100.00,NE,41,6.0,8.0,52,-99.99,,,0.00,271.000000,,2013-02-15 16:52:00,
2013-02-15 10:01:00,32.0,16.0,-100.00,NE,41,6.0,8.0,52,-99.99,,,0.00,271.000000,,2013-02-15 17:01:00,
2013-02-15 10:32:00,34.0,18.0,-100.00,NE,41,12.0,17.0,52,0.00,,,0.00,494.000000,,2013-02-15 17:32:00,
2013-02-15 10:42:00,34.0,18.0,-100.00,NE,41,12.0,17.0,52,0.00,,,0.00,494.000000,,2013-02-15 17:42:00,
2013-02-15 10:52:00,34.0,18.0,-100.00,NE,41,12.0,17.0,52,0.00,,,0.00,494.000000,,2013-02-15 17:52:00,
2013-02-15 11:01:00,34.0,18.0,-100.00,NE,41,12.0,17.0,52,0.00,,,0.00,494.000000,,2013-02-15 18:01:00,
2013-02-15 11:32:00,39.0,17.0,-100.00,NE,36,11.0,19.0,40,0.00,,,0.00,670.000000,,2013-02-15 18:32:00,
2013-02-15 11:42:00,39.0,17.0,-100.00,NE,36,11.0,19.0,40,0.00,,,0.00,670.000000,,2013-02-15 18:42:00,
2013-02-15 11:52:00,39.0,17.0,-100.00,NE,36,11.0,19.0,40,0.00,,,0.00,670.000000,,2013-02-15 18:52:00,
2013-02-15 12:01:00,39.0,17.0,-100.00,NE,36,11.0,19.0,40,0.00,,,0.00,670.000000,,2013-02-15 19:01:00,
2013-02-15 12:32:00,41.0,13.0,-100.00,ENE,57,11.0,19.0,32,0.00,,,0.00,768.000000,,2013-02-15 19:32:00,
2013-02-15 12:42:00,41.0,13.0,-100.00,ENE,57,11.0,19.0,32,0.00,,,0.00,768.000000,,2013-02-15 19:42:00,
2013-02-15 12:52:00,41.0,13.0,-100.00,ENE,57,11.0,19.0,32,0.00,,,0.00,768.000000,,2013-02-15 19:52:00,
2013-02-15 13:01:00,41.0,13.0,-100.00,ENE,57,11.0,19.0,32,0.00,,,0.00,768.000000,,2013-02-15 20:01:00,
2013-02-15 13:22:00,43.0,14.0,-100.00,ENE,76,8.0,22.0,30,0.00,,,0.00,832.000000,,2013-02-15 20:22:00,
2013-02-15 13:32:00,43.0,14.0,-100.00,ENE,76,8.0,22.0,30,0.00,,,0.00,832.000000,,2013-02-15 20:32:00,
2013-02-15 13:42:00,43.0,14.0,-100.00,ENE,76,8.0,22.0,30,0.00,,,0.00,832.000000,,2013-02-15 20:42:00,
2013-02-15 13:52:00,43.0,14.0,-100.00,ENE,76,8.0,22.0,30,0.00,,,0.00,832.000000,,2013-02-15 20:52:00,
2013-02-15 14:01:00,43.0,14.0,-100.00,ENE,76,8.0,22.0,30,0.00,,,0.00,832.000000,,2013-02-15 21:01:00,
2013-02-15 14:32:00,47.0,14.0,-100.00,ENE,73,6.0,15.0,26,0.00,,,0.00,806.000000,,2013-02-15 21:32:00,
2013-02-15 14:42:00,47.0,14.0,-100.00,ENE,73,6.0,15.0,26,0.00,,,0.00,806.000000,,2013-02-15 21:42:00,
2013-02-15 14:52:00,47.0,14.0,-100.00,ENE,73,6.0,15.0,26,0.00,,,0.00,806.000000,,2013-02-15 21:52:00,
2013-02-15 15:01:00,47.0,14.0,-100.00,ENE,73,6.0,15.0,26,0.00,,,0.00,806.000000,,2013-02-15 22:01:00,
2013-02-15 15:32:00,44.0,10.0,-100.00,NE,36,9.0,15.0,24,0.00,,,0.00,711.000000,,2013-02-15 22:32:00,
2013-02-15 15:42:00,44.0,10.0,-100.00,NE,36,9.0,15.0,24,0.00,,,0.00,711.000000,,2013-02-15 22:42:00,
2013-02-15 15:52:00,44.0,10.0,-100.00,NE,36,9.0,15.0,24,0.00,,,0.00,711.000000,,2013-02-15 22:52:00,
2013-02-15 16:02:00,44.0,10.0,-100.00,NE,36,9.0,15.0,24,0.00,,,0.00,711.000000,,2013-02-15 23:02:00,
2013-02-15 16:32:00,43.0,9.0,-100.00,NE,37,12.0,19.0,24,0.00,,,0.00,551.000000,,2013-02-15 23:32:00,
2013-02-15 16:42:00,43.0,9.0,-100.00,NE,37,12.0,19.0,24,0.00,,,0.00,551.000000,,2013-02-15 23:42:00,
2013-02-15 16:52:00,43.0,9.0,-100.00,NE,37,12.0,19.0,24,0.00,,,0.00,551.000000,,2013-02-15 23:52:00,
2013-02-15 17:01:00,43.0,9.0,-100.00,NE,37,12.0,19.0,24,0.00,,,0.00,551.000000,,2013-02-16 00:01:00,
2013-02-15 17:22:00,38.0,6.0,-100.00,NNE,27,13.0,21.0,26,0.00,,,0.00,300.000000,,2013-02-16 00:22:00,
2013-02-15 17:32:00,38.0,6.0,-100.00,NNE,27,13.0,21.0,26,0.00,,,0.00,300.000000,,2013-02-16 00:32:00,
2013-02-15 17:42:00,38.0,6.0,-100.00,NNE,27,13.0,21.0,26,0.00,,,0.00,300.000000,,2013-02-16 00:42:00,
2013-02-15 17:52:00,38.0,6.0,-100.00,NNE,27,13.0,21.0,26,0.00,,,0.00,300.000000,,2013-02-16 00:52:00,
2013-02-15 18:02:00,38.0,6.0,-100.00,NNE,27,13.0,21.0,26,0.00,,,0.00,300.000000,,2013-02-16 01:02:00,
2013-02-15 18:32:00,36.0,8.0,-100.00,NNE,30,8.0,22.0,30,0.00,,,0.00,17.000000,,2013-02-16 01:32:00,
2013-02-15 18:42:00,36.0,8.0,-100.00,NNE,30,8.0,22.0,30,0.00,,,0.00,17.000000,,2013-02-16 01:42:00,
2013-02-15 18:52:00,36.0,8.0,-100.00,NNE,30,8.0,22.0,30,0.00,,,0.00,17.000000,,2013-02-16 01:52:00,
2013-02-15 19:01:00,36.0,8.0,-100.00,NNE,30,8.0,22.0,30,0.00,,,0.00,17.000000,,2013-02-16 02:01:00,
2013-02-15 19:22:00,28.0,12.0,-100.00,East,84,2.0,13.0,51,0.00,,,0.00,1.000000,,2013-02-16 02:22:00,
2013-02-15 19:32:00,28.0,12.0,-100.00,East,84,2.0,13.0,51,0.00,,,0.00,1.000000,,2013-02-16 02:32:00,
2013-02-15 19:42:00,28.0,12.0,-100.00,East,84,2.0,13.0,51,0.00,,,0.00,1.000000,,2013-02-16 02:42:00,
2013-02-15 19:52:00,28.0,12.0,-100.00,East,84,2.0,13.0,51,0.00,,,0.00,1.000000,,2013-02-16 02:52:00,
2013-02-15 20:01:00,28.0,12.0,-100.00,East,84,2.0,13.0,51,0.00,,,0.00,1.000000,,2013-02-16 03:01:00,
2013-02-15 20:32:00,28.0,8.0,-100.00,ESE,106,5.0,12.0,43,-99.99,,,0.00,0.000000,,2013-02-16 03:32:00,
2013-02-15 20:42:00,28.0,8.0,-100.00,ESE,106,5.0,12.0,43,-99.99,,,0.00,0.000000,,2013-02-16 03:42:00,
2013-02-15 20:52:00,28.0,8.0,-100.00,ESE,106,5.0,12.0,43,-99.99,,,0.00,0.000000,,2013-02-16 03:52:00,
2013-02-15 21:01:00,28.0,8.0,-100.00,ESE,106,5.0,12.0,43,-99.99,,,0.00,0.000000,,2013-02-16 04:01:00,
2013-02-15 21:32:00,31.0,8.0,-100.00,ENE,68,6.0,10.0,37,-99.99,,,0.00,0.000000,,2013-02-16 04:32:00,
2013-02-15 21:42:00,31.0,8.0,-100.00,ENE,68,6.0,10.0,37,-99.99,,,0.00,0.000000,,2013-02-16 04:42:00,
2013-02-15 21:52:00,31.0,8.0,-100.00,ENE,68,6.0,10.0,37,-99.99,,,0.00,0.000000,,2013-02-16 04:52:00,
2013-02-15 22:01:00,31.0,8.0,-100.00,ENE,68,6.0,10.0,37,-99.99,,,0.00,0.000000,,2013-02-16 05:01:00,
2013-02-15 22:32:00,24.0,6.0,-100.00,ESE,117,4.0,14.0,45,0.00,,,-99.99,0.000000,,2013-02-16 05:32:00,
2013-02-15 22:42:00,24.0,6.0,-100.00,ESE,117,4.0,14.0,45,0.00,,,-99.99,0.000000,,2013-02-16 05:42:00,
2013-02-15 22:52:00,24.0,6.0,-100.00,ESE,117,4.0,14.0,45,0.00,,,-99.99,0.000000,,2013-02-16 05:52:00,
2013-02-15 23:01:00,24.0,6.0,-100.00,ESE,117,4.0,14.0,45,0.00,,,-99.99,0.000000,,2013-02-16 06:01:00,
2013-02-15 23:22:00,21.0,7.0,-100.00,SE,130,5.0,11.0,53,-99.99,,,0.00,0.000000,,2013-02-16 06:22:00,
2013-02-15 23:32:00,21.0,7.0,-100.00,SE,130,5.0,11.0,53,-99.99,,,0.00,0.000000,,2013-02-16 06:32:00,
2013-02-15 23:42:00,21.0,7.0,-100.00,SE,130,5.0,11.0,53,-99.99,,,0.00,0.000000,,2013-02-16 06:42:00,
2013-02-15 23:52:00,21.0,7.0,-100.00,SE,130,5.0,11.0,53,-99.99,,,0.00,0.000000,,2013-02-16 06:52:00,